STARLINK-3338 (50812 NORAD) Tracking and Keplerian Element Data

This shows tracking and keplerian element data for the satellite.

Feedback or suggestion? Click here.




ElementValue
Catalog50812
NameSTARLINK-3338
Epoch Orbit308
Epoch Day22.91667824
Epoch Year2022
RAAN119.783
Inclination53.2175
Eccentricity0.0001179
Argument of Perigee57.2993
Mean Anonmoly246.8612
Mean Motion15.75079531
Decay Rate-0.00821308
L11 50812U 22001K 22022.91667824 -.00821308 00000+0 -59372-2 0 9993
L22 50812 53.2175 119.7830 0001179 57.2993 246.8612 15.75079531 3086

Live tracking and technical data element details for STARLINK-3338 (NORAD 50812). STARLINK-3338 can be tracked NOW for your location showing map with azimuth and elevation plus other details from your city location.

Track the satellite on the map from your city or location and see movement details for azimuth, elevation, latitude, longitude, range, height, and movement on the map or in text.







IsCatalogInMostPopularTable: catalog: 50812, numindb: 1
Update: records affected: 1



GetName: 50812 STARLINK-3338

Hit Count: updated at: Sun, 23 Jan 2022 23:55:03 GMT